Weather History for Somerset, KY

Change the Weather History Date:

Wednesday, April 16, 2014

  Actual Average Record
Temperature  
Mean Temperature 42 °F -  
Max Temperature 57 °F 68 °F 89 °F (2002)
Min Temperature 28 °F 45 °F 28 °F (2014)
Degree Days  
Heating Degree Days 22    
Moisture  
Dew Point 21 °F    
Average Humidity 49    
Maximum Humidity 93    
Minimum Humidity 23    
Precipitation  
Precipitation 0.00 in - - ()
Sea Level Pressure  
Sea Level Pressure 30.30 in    
Wind  
Wind Speed 5 mph (East)    
Max Wind Speed 15 mph    
Max Gust Speed 22 mph    
Visibility 10 miles    
Events      
Averages and records for this station are not official NWS values.
T = Trace of Precipitation, MM = Missing Value Source: NWS Daily Summary

Daily Weather History Graph

Daily Weather History Graph

Search for Another Location

Airport:

Trip Planner

Search our weather history database for the weather conditions in past years. The results will help you decide how hot, cold, wet, or windy it might be!

Date:

Astronomy

Apr. 16, 2014 Rise Set
Actual Time 7:02 AM EDT 8:14 PM EDT
Civil Twilight 6:35 AM EDT 8:41 PM EDT
Nautical Twilight 6:03 AM EDT 9:13 PM EDT
Astronomical Twilight 5:30 AM EDT 9:46 PM EDT
Moon 9:55 PM EDT (4/16) 7:51 AM EDT (4/16)
Length of Visible Light 14h 05m
Length of Day
13h 11m
Full, 98% of the Moon is Illuminated
Apr 16
Full
Apr 22
Last Quarter
Apr 29
New
May 6
First Quarter
May 14
Full

Hourly Weather History & Observations

Time (EDT) Temp. Windchill Dew Point Humidity Pressure Visibility Wind Dir Wind Speed Gust Speed Precip Events Conditions
12:15 AM 32.0 °F 27.5 °F 21.2 °F 64% 30.23 in 10.0 mi ENE 4.6 mph - N/A   Clear
12:35 AM 32.0 °F 28.7 °F 21.2 °F 64% 30.24 in 10.0 mi ENE 3.5 mph - N/A   Clear
12:55 AM 32.0 °F 27.5 °F 21.2 °F 64% 30.25 in 10.0 mi NE 4.6 mph - N/A   Clear
1:15 AM 32.0 °F 27.5 °F 21.2 °F 64% 30.25 in 10.0 mi NE 4.6 mph - N/A   Clear
1:35 AM 32.0 °F 27.5 °F 21.2 °F 64% 30.26 in 10.0 mi NE 4.6 mph - N/A   Clear
1:55 AM 32.0 °F 28.7 °F 21.2 °F 64% 30.27 in 10.0 mi NNE 3.5 mph - N/A   Clear
2:15 AM 30.2 °F 26.7 °F 21.2 °F 69% 30.28 in 10.0 mi North 3.5 mph - N/A   Clear
2:35 AM 30.2 °F - 21.2 °F 69% 30.29 in 10.0 mi Calm Calm - N/A   Clear
2:55 AM 30.2 °F 26.7 °F 23.0 °F 75% 30.30 in 10.0 mi NNW 3.5 mph - N/A   Clear
3:15 AM 30.2 °F - 21.2 °F 69% 30.30 in 10.0 mi Calm Calm - N/A   Clear
3:35 AM 30.2 °F 26.7 °F 23.0 °F 75% 30.30 in 10.0 mi NNE 3.5 mph - N/A   Clear
3:55 AM 28.4 °F - 23.0 °F 80% 30.31 in 10.0 mi Calm Calm - N/A   Clear
4:15 AM 28.4 °F - 26.6 °F 93% 30.32 in 10.0 mi Calm Calm - N/A   Clear
4:35 AM 28.4 °F - 26.6 °F 93% 30.33 in 10.0 mi Calm Calm - N/A   Clear
4:55 AM 28.4 °F - 26.6 °F 93% 30.33 in 10.0 mi Calm Calm - N/A   Clear
5:15 AM 28.4 °F - 26.6 °F 93% 30.33 in 10.0 mi Calm Calm - N/A   Clear
5:35 AM 28.4 °F - 26.6 °F 93% 30.35 in 10.0 mi Calm Calm - N/A   Clear
6:15 AM 28.4 °F - 21.2 °F 74% 30.35 in 10.0 mi Calm Calm - N/A   Clear
6:35 AM 28.4 °F 24.6 °F 21.2 °F 74% 30.35 in 10.0 mi ENE 3.5 mph - N/A   Clear
6:55 AM 30.2 °F 25.4 °F 19.4 °F 64% 30.36 in 10.0 mi ENE 4.6 mph - N/A   Clear
7:15 AM 30.2 °F 25.4 °F 19.4 °F 64% 30.37 in 10.0 mi ENE 4.6 mph - N/A   Clear
7:35 AM 30.2 °F 23.4 °F 21.2 °F 69% 30.37 in 10.0 mi East 6.9 mph - N/A   Clear
7:55 AM 30.2 °F 23.4 °F 21.2 °F 69% 30.37 in 10.0 mi East 6.9 mph - N/A   Clear
8:15 AM 32.0 °F 23.6 °F 21.2 °F 64% 30.38 in 10.0 mi East 10.4 mph - N/A   Clear
8:35 AM 32.0 °F 25.6 °F 21.2 °F 64% 30.37 in 10.0 mi East 6.9 mph - N/A   Clear
8:55 AM 32.0 °F 24.8 °F 21.2 °F 64% 30.36 in 10.0 mi East 8.1 mph - N/A   Clear
9:15 AM 33.8 °F 24.3 °F 21.2 °F 60% 30.37 in 10.0 mi East 13.8 mph 18.4 mph N/A   Clear
9:35 AM 33.8 °F 24.3 °F 19.4 °F 56% 30.36 in 10.0 mi East 13.8 mph 21.9 mph N/A   Clear
9:55 AM 35.6 °F 26.2 °F 19.4 °F 52% 30.37 in 10.0 mi East 15.0 mph 21.9 mph N/A   Clear
10:15 AM 37.4 °F 29.8 °F 19.4 °F 48% 30.37 in 10.0 mi East 11.5 mph 19.6 mph N/A   Clear
10:35 AM 37.4 °F 31.4 °F 19.4 °F 48% 30.37 in 10.0 mi ESE 8.1 mph 16.1 mph N/A   Clear
10:55 AM 39.2 °F 32.0 °F 19.4 °F 45% 30.38 in 10.0 mi East 11.5 mph - N/A   Clear
11:15 AM 41.0 °F 34.7 °F 17.6 °F 39% 30.39 in 10.0 mi ENE 10.4 mph - N/A   Clear
11:35 AM 41.0 °F 37.1 °F 19.4 °F 42% 30.39 in 10.0 mi East 5.8 mph - N/A   Clear
11:55 AM 42.8 °F 38.6 °F 17.6 °F 36% 30.38 in 10.0 mi East 6.9 mph 16.1 mph N/A   Clear
12:15 PM 42.8 °F 38.6 °F 19.4 °F 39% 30.38 in 10.0 mi ENE 6.9 mph - N/A   Clear
12:35 PM 44.6 °F 40.7 °F 17.6 °F 34% 30.37 in 10.0 mi ESE 6.9 mph 16.1 mph N/A   Clear
12:55 PM 46.4 °F 42.4 °F 19.4 °F 34% 30.36 in 10.0 mi ESE 8.1 mph - N/A   Clear
1:15 PM 46.4 °F 42.4 °F 17.6 °F 32% 30.35 in 10.0 mi SE 8.1 mph - N/A   Clear
1:35 PM 48.2 °F - 19.4 °F 32% 30.34 in 10.0 mi ESE 8.1 mph - N/A   Clear
2:15 PM 50.0 °F - 19.4 °F 30% 30.32 in 10.0 mi Calm Calm - N/A   Clear
2:35 PM 50.0 °F - 19.4 °F 30% 30.31 in 10.0 mi ESE 4.6 mph - N/A   Clear
2:55 PM 51.8 °F - 19.4 °F 28% 30.30 in 10.0 mi East 11.5 mph 16.1 mph N/A   Clear
3:15 PM 51.8 °F - 19.4 °F 28% 30.30 in 10.0 mi SSE 5.8 mph - N/A   Clear
3:35 PM 53.6 °F - 19.4 °F 26% 30.28 in 10.0 mi East 5.8 mph - N/A   Clear
3:55 PM 53.6 °F - 19.4 °F 26% 30.28 in 10.0 mi East 3.5 mph - N/A   Clear
4:15 PM 53.6 °F - 19.4 °F 26% 30.26 in 10.0 mi ENE 9.2 mph - N/A   Clear
4:35 PM 55.4 °F - 21.2 °F 26% 30.26 in 10.0 mi Calm Calm - N/A   Clear
4:55 PM 55.4 °F - 19.4 °F 25% 30.25 in 10.0 mi NE 3.5 mph - N/A   Clear
5:15 PM 57.2 °F - 19.4 °F 23% 30.24 in 10.0 mi ESE 4.6 mph - N/A   Clear
5:35 PM 57.2 °F - 19.4 °F 23% 30.24 in 10.0 mi ESE 6.9 mph - N/A   Clear
5:55 PM 57.2 °F - 19.4 °F 23% 30.23 in 10.0 mi ESE 5.8 mph - N/A   Clear
6:15 PM 55.4 °F - 19.4 °F 25% 30.23 in 10.0 mi SE 8.1 mph - N/A   Clear
6:35 PM 57.2 °F - 19.4 °F 23% 30.22 in 10.0 mi East 6.9 mph - N/A   Clear
6:55 PM 55.4 °F - 21.2 °F 26% 30.22 in 10.0 mi East 5.8 mph - N/A   Clear
7:15 PM 55.4 °F - 21.2 °F 26% 30.22 in 10.0 mi East 6.9 mph - N/A   Clear
7:35 PM 53.6 °F - 21.2 °F 28% 30.22 in 10.0 mi East 3.5 mph - N/A   Clear
7:55 PM 53.6 °F - 21.2 °F 28% 30.22 in 10.0 mi East 4.6 mph - N/A   Clear
8:15 PM 51.8 °F - 23.0 °F 33% 30.22 in 10.0 mi ENE 4.6 mph - N/A   Clear
8:35 PM 51.8 °F - 21.2 °F 30% 30.22 in 10.0 mi ENE 3.5 mph - N/A   Clear
8:50 PM 50.0 °F - 21.2 °F 32% 30.22 in 10.0 mi Calm Calm - N/A   Clear
9:15 PM 50.0 °F - 23.0 °F 35% 30.22 in 10.0 mi Calm Calm - N/A   Clear
9:35 PM 46.4 °F 44.3 °F 23.0 °F 40% 30.23 in 10.0 mi East 4.6 mph - N/A   Clear
9:55 PM 46.4 °F - 23.0 °F 40% 30.24 in 10.0 mi Calm Calm - N/A   Clear
10:15 PM 46.4 °F - 24.8 °F 43% 30.24 in 10.0 mi Calm Calm - N/A   Clear
10:35 PM 48.2 °F - 23.0 °F 37% 30.24 in 10.0 mi Calm Calm - N/A   Clear
10:55 PM 46.4 °F - 23.0 °F 40% 30.24 in 10.0 mi Calm Calm - N/A   Clear
11:15 PM 46.4 °F 45.2 °F 23.0 °F 40% 30.25 in 10.0 mi SE 3.5 mph - N/A   Clear
11:35 PM 46.4 °F - 23.0 °F 40% 30.25 in 10.0 mi Calm Calm - N/A   Clear
11:55 PM 44.6 °F - 24.8 °F 46% 30.26 in 10.0 mi Calm Calm - N/A   Clear